Simultaneous Nadir Overpasses (SNOs) Predictions

Prediction of SNOs between LANDSAT-8 and NOAA-19 Satellite Orbit:

Table of predicted SNOs for the next 14.0 days since TLE Epoch: 3/25/2023
Index Date (LANDSAT-8) Time (LANDSAT-8) Lat,Lon (LANDSAT-8) SZA (LANDSAT-8 ) Date (NOAA-19) Time (NOAA-19) Lat,Lon (NOAA-19) SZA (NOAA-19 ) Distance(km) Time Diff (sec)
1 03/26/2023 03:48:54 -80.93, -20.49 99.51 03/26/2023 03:48:48 -80.94, -20.55 99.51 1.09 6
2 03/28/2023 09:22:36 80.95, 76.34 79.68 03/28/2023 09:21:27 80.94, 76.20 79.63 2.95 69
3 03/28/2023 10:12:04 -80.92,-116.41 100.40 03/28/2023 10:12:24 -80.94,-116.26 100.37 3.16 20
4 03/30/2023 15:45:45 80.95, -19.51 78.81 03/30/2023 15:45:02 80.94, -19.47 78.79 1.36 43
5 03/30/2023 16:35:12 -80.94, 148.10 101.22 03/30/2023 16:36:00 -80.94, 147.92 101.22 3.24 48
6 04/01/2023 22:08:53 80.95,-115.27 77.95 04/01/2023 22:08:37 80.94,-115.24 77.94 1.50 16
7 04/01/2023 22:58:12 -81.15, 55.21 101.64 04/01/2023 22:59:26 -80.91, 55.74 101.73 27.48 74
8 04/04/2023 04:32:01 80.93, 148.72 77.07 04/04/2023 04:32:12 80.94, 148.88 77.09 2.82 11
9 04/06/2023 10:05:42 -80.92,-114.81 103.78 04/06/2023 10:04:49 -80.94,-114.73 103.78 1.91 53



Historial Predications of SNOs between LANDSAT-8 and NOAA-19
